Printer-friendly version

IAU Minor Planet Center

Minor Planet Center

MPEC 2008-G22 : 2008 GR

The following Minor Planet Electronic Circular may be linked-to from your own Web pages, but must not otherwise be redistributed electronically.


Read MPEC 2008-G21 Read MPEC 2008-G23


M.P.E.C. 2008-G22                                Issued 2008 Apr. 4, 15:45 UT

     The Minor Planet Electronic Circulars contain information on unusual
         minor planets and routine data on comets.  They are published
   on behalf of Commission 20 of the International Astronomical Union by the
          Minor Planet Center, Smithsonian Astrophysical Observatory,
                          Cambridge, MA 02138, U.S.A.

             Prepared using the Tamkin Foundation Computer Network

                              MPC@CFA.HARVARD.EDU
          URL http://www.cfa.harvard.edu/iau/mpc.html  ISSN 1523-6714

                                    2008 GR

Observations:
     K08G00R* C2008 04 03.35609 13 31 34.28 -07 41 12.7          20.9 V EG022G96
     K08G00R  C2008 04 03.36203 13 31 36.04 -07 41 38.6          21.0 V EG022G96
     K08G00R  C2008 04 03.36796 13 31 37.84 -07 42 04.7          20.9 V EG022G96
     K08G00R  C2008 04 03.37396 13 31 39.61 -07 42 30.2          20.8 V EG022G96
     K08G00R  C2008 04 03.39185 13 31 44.97 -07 43 48.9          20.2 V EG022G96
     K08G00R  C2008 04 03.39872 13 31 47.02 -07 44 18.8          21.0 V EG022G96
     K08G00R  C2008 04 03.40558 13 31 49.08 -07 44 48.9          21.2 V EG022G96
     K08G00R  C2008 04 03.41243 13 31 51.16 -07 45 18.6          21.1 V EG022G96
     K08G00R  C2008 04 04.32649 13 37 20.24 -08 56 12.7          20.9 V EG022G96
     K08G00R  C2008 04 04.33328 13 37 22.54 -08 56 46.0          20.9 V EG022G96
     K08G00R  C2008 04 04.34000 13 37 24.81 -08 57 19.0          20.8 V EG022G96
     K08G00R  C2008 04 04.34679 13 37 27.01 -08 57 52.5          21.0 V EG022G96

Observer details:
G96 Mt. Lemmon Survey.  Observers R. E. Hill, S. M. Larson.  Measurers
    E. C. Beshore, A. Boattini, G. J. Garradd, A. R. Gibbs, A. D. Grauer,
    R. E. Hill, R. A. Kowalski, S. M. Larson, R. H. McNaught.  1.5-m reflector
    + CCD.

Orbital elements:
2008 GR                                                  Earth MOID = 0.0168 AU
Epoch 2008 May 14.0 TT = JDT 2454600.5                  MPC
M 359.77874              (2000.0)            P               Q
n   0.42640699     Peri.  224.73926     -0.47312395     +0.88084939
a   1.7481815      Node    17.04363     -0.79217653     -0.41737531
e   0.4424117      Incl.    3.14193     -0.38549976     -0.22338800
P   2.31           H   25.6           G   0.15           U   9
Residuals in seconds of arc
080403 G96  0.2-  0.3-    080403 G96  0.2+  0.0     080404 G96  0.1+  0.0
080403 G96  0.3-  0.2-    080403 G96  0.0   0.1+    080404 G96  0.3+  0.0
080403 G96  0.3+  0.3-    080403 G96  0.1-  0.0     080404 G96  0.4+  0.0
080403 G96  0.0   0.4+    080403 G96  0.1+  0.3+    080404 G96  0.9-  0.1-

Ephemeris:
2008 GR                  a,e,i = 1.75, 0.44, 3                   q = 0.9748
Date    TT    R. A. (2000) Decl.     Delta      r     Elong.  Phase     V
2008 04 04    13 35.31   -08 28.8    0.0790   1.078   169.2    10.0    20.9
2008 04 05    13 41.74   -09 52.1    0.0742   1.073   168.3    10.9    20.8
2008 04 06    13 49.06   -11 25.9    0.0696   1.069   167.1    12.1    20.7
2008 04 07    13 57.46   -13 11.8    0.0652   1.064   165.5    13.7    20.6
2008 04 08    14 07.15   -15 11.1    0.0609   1.060   163.5    15.6    20.5
2008 04 09    14 18.43   -17 25.4    0.0569   1.056   161.0    18.0    20.4
2008 04 10    14 31.64   -19 55.9    0.0532   1.051   158.0    20.9    20.4
2008 04 11    14 47.22   -22 42.9    0.0498   1.047   154.4    24.4    20.3
2008 04 12    15 05.65   -25 45.2    0.0467   1.043   150.2    28.5    20.3
2008 04 13    15 27.49   -28 59.1    0.0441   1.039   145.3    33.3    20.3
2008 04 14    15 53.26   -32 17.3    0.0421   1.036   139.8    38.7    20.3
2008 04 15    16 23.26   -35 28.2    0.0406   1.032   133.7    44.6    20.4
2008 04 16    16 57.36   -38 17.0    0.0398   1.028   127.3    50.9    20.5
2008 04 17    17 34.67   -40 28.3    0.0397   1.025   120.7    57.4    20.7
2008 04 18    18 13.52   -41 51.3    0.0402   1.021   114.2    63.8    20.9
2008 04 19    18 51.78   -42 23.1    0.0414   1.018   108.0    69.8    21.2
2008 04 20    19 27.50   -42 09.6    0.0431   1.015   102.3    75.3    21.4
2008 04 21    19 59.45   -41 21.7    0.0454   1.012    97.2    80.3    21.7
2008 04 22    20 27.18   -40 11.5    0.0481   1.009    92.7    84.5    22.0
2008 04 23    20 50.84   -38 49.2    0.0512   1.006    88.9    88.2    22.3
2008 04 24    21 10.90   -37 22.4    0.0546   1.003    85.6    91.3    22.5

Timothy B. Spahr             (C) Copyright 2008 MPC           M.P.E.C. 2008-G22

Read MPEC 2008-G21 Read MPEC 2008-G23


Our Web policy. Index to the CBAT/MPC/ICQ pages.


Valid HTML 4.01!